Temp
24 23 24 25 26 28 29 29 29 29 31 31 30 30 31 32 32 32 32 32 32 31 32 32 32 30 27 27 27 27 26 24 23 23 23 23 23 23 21 22 21 18 19 21
24 23 25 27 28 28 28 28 30 31 32 31 31 30 31 32 32 33 32 32 31 31 31 32 31 30 28 27 26 26 25 25 25 25 25 25 23 24 25 23 23 22 22 22
24 25 26 27 27 27 28 28 29 30 31 31 30 29 30 32 32 33 32 32 32 31 31 31 30 29 29 27 25 25 25 24 25 25 25 25 24 24 24 23 22 23 23 23
25 27 27 26 27 28 27 29 30 30 29 28 30 27 30 31 32 32 32 31 31 32 32 31 31 29 29 27 27 27 26 25 24 25 25 26 24 25 25 23 23 23 23 23
24 26 27 27 27 29 28 30 29 29 29 28 29 28 30 32 31 31 31 31 32 32 32 32 31 29 29 28 27 27 26 25 25 24 24 24 23 25 24 24 23 23 22 22
25 28 28 28 29 29 30 29 29 29 28 26 27 28 29 30 31 32 32 32 32 33 33 33 31 30 29 29 28 26 25 21 22 22 22 22 22 23 23 22 22 23 22 22
25 26 28 29 28 29 28 27 25 25 25 26 29 28 29 30 31 32 32 32 32 32 30 31 29 29 27 27 25 22 21 21 20 20 20 20 21 21 20 21 21 21 21 22
24 24 27 29 28 27 27 27 26 24 25 26 29 28 30 31 32 32 32 33 32 31 30 29 29 28 27 24 22 21 20 20 19 19 18 19 20 20 20 20 19 19 20 20
24 24 28 28 29 29 27 27 28 27 27 24 28 29 28 31 30 31 31 31 30 30 29 28 27 27 25 24 23 22 21 20 20 18 18 18 18 18 18 18 17 18 18 18
25 23 26 27 28 29 28 29 26 27 24 23 26 28 25 28 29 30 30 30 30 30 28 27 26 25 24 23 22 21 21 20 20 19 19 19 18 18 18 17 17 17 16 16
25 23 21 23 26 26 27 27 27 27 27 24 23 23 21 24 25 22 30 29 29 29 28 27 25 24 23 22 21 20 20 20 20 20 19 19 18 18 17 17 16 16 16 15
25 23 18 21 26 28 28 27 26 23 24 27 24 22 19 22 24 22 22 29 29 28 27 26 25 23 23 22 22 21 21 21 21 20 19 18 18 17 17 16 16 15 15 15
22 22 19 18 23 26 27 28 28 26 26 25 23 18 20 24 22 19 18 22 27 27 26 25 24 24 24 23 22 21 21 20 20 19 19 18 17 17 16 15 15 15 14 14
17 20 19 19 23 25 26 27 27 27 24 23 24 23 24 25 25 24 20 23 18 18 25 25 25 24 22 21 20 20 19 19 18 17 17 16 16 16 15 15 15 14 14 13
17 20 20 16 20 20 26 27 25 23 23 22 23 22 24 23 21 23 22 22 20 18 23 24 22 22 21 19 18 18 17 17 17 16 16 15 15 15 15 15 14 14 13 12
19 20 22 20 19 17 25 27 24 21 21 22 23 19 21 20 18 18 22 23 24 23 23 22 21 20 19 18 17 16 16 15 15 14 15 15 14 14 14 14 14 13 12 12
21 21 22 18 18 19 22 25 25 24 24 23 25 23 24 20 19 18 25 25 23 22 21 20 20 18 16 16 15 15 14 14 14 14 14 14 13 13 12 12 11 11 10 10
20 21 18 15 16 16 23 25 26 26 24 25 27 26 25 23 22 21 23 22 21 20 20 19 17 16 15 15 14 13 13 13 13 13 13 12 11 10 10 9 9 8 8 9
20 20 17 16 20 22 23 24 25 25 24 26 26 27 26 23 21 19 20 20 19 19 18 17 16 15 14 12 11 10 11 11 11 11 9 9 8 8 7 7 7 7 7 7
20 19 18 17 19 21 23 25 26 26 21 24 25 25 24 23 20 18 19 18 17 16 15 15 14 12 11 9 8 8 9 8 8 7 6 6 6 6 5 5 5 5 5 7
16 17 17 15 20 20 22 23 24 22 20 21 21 22 21 20 19 18 18 17 16 15 14 14 12 10 8 7 7 7 6 6 5 4 4 3 4 4 4 5 5 5 6 7
14 16 19 21 19 17 22 23 21 19 21 21 20 19 18 18 18 18 17 16 16 15 14 14 12 9 8 6 5 5 4 3 3 3 2 3 3 3 4 4 4 5 6 7
19 21 18 20 18 20 21 20 20 20 20 20 20 19 19 18 18 17 16 16 15 14 14 13 12 11 8 5 3 2 1 1 1 1 1 2 3 3 3 3 4 5 6 5
19 20 18 19 18 19 18 18 18 19 19 19 19 18 18 17 17 16 16 15 15 14 13 12 11 11 9 6 3 1 0 0 0 1 1 1 2 3 3 3 3 4 4 4
20 20 19 18 18 17 17 18 18 18 19 19 19 18 17 17 16 15 14 14 13 13 12 11 10 9 8 7 5 2 1 0 -0 0 0 1 1 2 2 2 2 3 3 3
19 19 17 17 17 16 16 18 19 19 18 18 17 17 16 16 15 14 13 12 12 11 11 10 9 9 8 7 5 3 1 1 -0 -0 -0 -0 0 1 1 1 2 2 2 3
Height
709 720 713 711 708 703 698 698 701 693 677 680 693 695 688 681 683 683 681 686 689 690 691 695 697 704 710 716 719 721 725 731 735 741 748 754 755 757 758 762 763 755 750 758
707 708 700 697 696 699 698 698 688 675 668 679 686 694 684 678 676 674 675 680 684 686 688 688 692 703 711 718 721 722 726 732 733 741 741 750 753 752 756 762 764 764 764 767
696 689 690 690 693 696 695 697 688 684 673 674 686 699 690 675 668 666 670 673 675 680 684 684 689 698 707 713 720 725 728 730 734 736 734 743 749 752 758 761 761 761 762 767
686 675 678 688 686 685 696 679 680 682 691 706 682 715 680 670 669 668 670 674 674 673 676 679 683 693 702 708 716 720 724 727 732 733 735 737 746 752 749 753 754 757 762 767
677 676 674 679 680 672 682 671 682 684 691 695 692 704 676 657 669 669 668 670 669 668 671 676 679 687 696 707 714 718 721 724 729 732 735 736 743 745 753 748 750 757 762 762
668 656 660 661 661 662 666 676 678 685 693 714 699 699 686 672 662 659 659 663 665 664 666 670 674 685 697 705 713 717 720 726 727 730 735 740 737 741 749 752 754 758 764 759
664 661 652 650 665 661 670 685 707 716 712 711 684 694 679 665 661 652 654 658 660 663 671 670 680 693 701 708 714 721 723 727 732 731 741 742 740 746 751 755 756 758 757 760
670 676 651 643 656 667 671 680 696 716 713 700 676 690 671 654 652 652 652 650 657 666 673 683 689 695 705 716 723 728 731 732 734 736 743 744 744 748 752 753 756 757 760 759
663 662 641 644 644 651 669 678 668 684 682 711 680 670 667 656 656 660 661 659 664 669 676 688 695 700 709 720 727 732 735 738 739 741 745 747 747 751 752 755 755 756 758 758
650 670 646 647 644 645 653 655 687 678 709 718 690 680 700 678 669 665 667 668 667 670 680 693 701 708 717 725 731 735 740 744 746 746 747 750 750 753 755 756 758 758 758 759
644 663 681 665 654 660 661 667 666 670 676 705 716 710 699 689 684 697 665 665 669 674 682 693 706 717 724 732 737 741 745 747 747 747 749 752 754 755 757 758 758 758 758 755
638 660 694 676 648 639 646 656 668 694 693 674 693 713 701 694 691 689 682 663 669 678 688 698 710 720 727 732 738 742 746 747 748 750 753 754 756 758 758 756 757 755 755 754
651 658 687 692 667 646 646 645 650 664 671 678 699 733 708 692 694 696 709 700 670 687 694 707 715 719 725 732 738 743 747 749 751 753 754 755 756 756 756 756 754 752 751 749
673 661 673 680 661 650 650 644 646 652 682 689 692 700 695 689 692 697 707 690 707 708 700 711 718 724 732 739 743 746 748 749 750 752 753 753 753 753 752 751 750 749 748 746
668 663 662 686 669 663 643 643 657 672 677 696 694 695 694 696 700 699 698 704 712 725 722 720 727 733 739 746 749 749 750 751 752 753 753 753 753 752 751 750 748 746 744 743
653 655 649 669 674 679 648 637 660 676 684 694 688 704 694 695 699 701 699 701 703 711 720 730 737 740 746 751 753 753 753 754 754 755 754 752 750 749 748 746 744 742 741 740
639 644 650 680 674 670 665 647 655 662 664 674 675 682 682 703 707 712 690 692 703 719 726 733 739 747 754 756 757 755 755 753 752 752 752 749 749 748 746 744 743 741 739 737
642 646 666 685 694 702 658 643 645 652 665 663 658 671 678 687 700 706 695 706 715 726 733 738 745 752 758 759 758 757 755 753 752 752 750 750 749 747 745 743 741 739 737 734
641 648 672 688 673 665 661 658 655 659 668 662 664 663 671 689 703 718 717 720 728 734 741 746 751 756 759 761 761 759 757 755 754 753 752 751 750 747 744 742 739 737 734 731
650 654 668 683 677 675 661 652 646 652 688 672 671 669 678 686 709 728 728 733 739 744 750 751 754 760 764 766 765 762 760 758 756 755 754 752 749 745 742 739 737 735 732 728
672 672 675 692 675 676 662 660 656 682 703 685 686 687 695 705 717 729 733 740 745 749 754 756 761 766 770 769 766 763 761 759 759 756 753 749 746 743 740 736 734 731 727 724
684 685 667 659 676 699 666 666 680 690 687 693 699 707 714 721 727 733 739 744 748 753 757 760 764 768 770 770 768 765 763 761 759 755 752 747 744 741 737 734 731 727 724 721
667 659 668 667 685 676 674 682 685 689 695 701 705 711 717 724 730 736 743 749 754 758 761 763 764 767 769 771 770 767 765 761 758 754 750 745 742 739 736 732 728 724 721 719
664 660 675 675 686 686 690 692 695 701 705 709 713 721 725 731 737 744 750 754 759 763 764 765 766 767 769 771 771 769 765 761 757 752 748 745 741 737 734 730 727 723 720 717
663 666 675 685 690 696 699 701 703 709 711 715 722 727 733 739 745 752 757 761 764 766 768 769 770 771 771 770 770 768 765 761 757 752 748 744 741 737 732 729 725 721 718 716
672 677 688 693 693 701 708 706 708 713 718 726 731 737 742 747 752 757 762 766 768 770 771 772 773 773 772 772 771 769 765 762 759 754 749 746 741 737 733 728 721 717 715 710
Wind_Speed
22 18 20 25 25 21 22 22 22 18 21 20 17 14 17 18 17 18 14 12 13 15 15 25 20 24 28 23 20 22 27 27 26 22 19 17 17 15 13 13 16 5 19 11
21 24 24 25 25 26 24 25 23 18 22 11 13 14 16 17 16 15 11 11 13 14 16 17 22 23 26 23 19 19 19 21 19 15 11 4 13 11 11 13 15 17 16 13
25 19 26 26 25 25 23 24 19 14 8 9 9 13 17 17 16 11 9 7 10 12 15 15 16 23 18 24 24 20 16 15 12 12 12 7 1 9 2 5 10 7 4 8
25 26 24 26 26 25 23 22 19 12 12 13 18 14 20 21 18 13 11 8 11 15 16 15 15 19 23 27 26 19 20 20 13 13 10 10 8 9 7 7 9 11 9 6
26 26 25 23 27 26 20 19 18 16 13 12 16 10 15 10 14 15 12 12 11 13 17 18 19 23 24 21 21 15 9 9 11 9 9 12 12 9 11 10 12 7 4 5
27 25 25 25 22 23 16 17 19 16 14 14 18 16 15 4 16 16 17 15 13 10 12 12 16 23 19 13 12 4 12 11 11 11 9 10 14 12 12 12 8 5 6 6
24 28 26 24 19 20 19 17 9 12 12 13 16 17 13 12 5 7 16 16 14 10 12 9 19 13 15 10 14 12 16 16 15 17 13 13 17 15 11 8 9 8 9 7
18 22 28 22 20 21 23 17 12 17 14 14 20 19 12 14 12 5 4 12 14 12 14 10 10 13 20 17 12 11 11 14 15 16 13 12 13 9 9 6 3 3 5 8
20 24 22 24 19 22 20 20 21 17 9 5 7 6 6 2 12 8 10 9 12 11 14 15 11 14 22 19 17 16 14 12 14 14 11 9 9 5 5 4 5 6 7 9
18 13 17 22 18 22 23 20 18 14 16 11 12 14 7 8 14 13 14 12 12 15 18 16 11 16 20 16 16 17 13 11 11 10 8 7 6 4 2 4 6 8 11 13
21 4 9 16 21 21 16 16 13 9 12 6 6 5 5 3 10 15 17 14 13 16 18 17 16 19 18 17 13 12 10 10 8 7 6 4 2 3 5 6 9 11 13 15
21 5 6 14 22 24 21 20 18 7 13 12 6 3 9 12 4 11 14 15 15 18 16 16 16 17 18 17 15 10 7 5 6 4 3 3 4 5 7 9 11 13 15 16
5 7 10 9 8 16 24 22 20 18 5 8 5 5 14 4 10 9 13 15 8 15 17 15 14 12 14 14 10 11 5 6 6 5 5 5 6 9 10 12 13 14 16 18
8 8 9 6 12 16 21 22 15 16 7 9 6 9 8 5 1 9 16 14 15 15 16 12 10 12 16 11 9 8 7 8 9 9 10 11 12 14 15 17 16 16 15 17
5 14 11 12 11 8 17 24 13 8 6 5 7 8 7 1 7 8 10 15 15 10 2 11 12 10 11 10 5 6 7 7 9 10 11 12 14 15 16 17 17 16 15 18
15 12 21 20 17 16 26 13 14 5 11 7 10 12 18 7 5 9 9 19 18 16 14 11 9 7 11 8 8 7 7 8 9 10 13 14 15 17 17 18 18 16 15 19
16 13 16 4 3 10 5 13 17 21 25 21 9 17 17 13 9 12 9 13 14 15 14 11 11 12 10 10 9 10 11 11 12 13 15 15 16 18 18 19 19 18 19 21
6 10 4 7 11 2 1 8 10 9 6 7 3 18 16 16 11 9 10 17 17 14 11 11 12 11 9 9 12 13 14 14 14 15 16 17 18 19 20 20 20 21 21 22
3 8 5 3 3 11 11 8 8 11 8 2 5 8 19 23 23 17 19 17 15 12 12 14 12 9 11 14 16 16 15 15 16 16 17 18 19 21 21 20 20 20 22 23
8 9 6 2 7 6 12 10 6 7 8 8 5 4 18 16 12 11 14 14 14 17 13 13 15 16 14 15 16 16 15 16 16 17 19 19 19 20 21 20 21 21 23 24
6 4 6 5 3 6 11 7 3 7 5 15 16 14 17 16 14 14 14 13 16 15 13 14 13 14 13 15 16 16 15 15 17 18 19 20 20 20 21 21 20 23 21 21
5 7 7 4 6 4 4 7 2 12 13 16 18 18 19 18 15 14 13 12 11 11 11 10 11 12 11 15 16 16 15 17 17 18 20 21 20 20 20 21 20 22 20 20
6 5 3 4 6 10 15 16 16 15 16 16 16 16 15 15 14 13 11 11 10 9 10 9 11 12 10 14 17 17 18 17 17 19 21 20 19 19 19 20 20 19 16 17
6 9 6 8 11 16 14 17 18 18 19 17 16 13 12 13 13 12 10 9 8 10 10 11 11 13 12 11 12 15 21 22 20 20 21 19 19 20 18 18 17 18 17 17
5 6 8 16 17 16 17 16 18 16 16 16 14 15 14 13 13 11 10 9 10 11 11 12 12 13 13 13 15 12 23 23 22 20 20 18 19 19 18 18 18 20 19 18
6 5 6 6 11 14 10 15 17 17 16 15 16 16 14 13 12 12 10 11 11 11 11 11 12 12 13 14 15 16 16 22 18 22 18 18 18 18 19 21 24 22 19 21
Wind_Direction
205 217 216 216 225 226 243 230 221 239 262 189 209 249 235 227 224 243 219 211 234 221 223 234 204 150 134 144 145 147 145 160 166 167 180 186 206 228 211 197 161 191 282 151
208 223 221 220 223 228 235 251 247 218 216 218 207 231 250 241 243 236 231 208 216 214 228 231 186 151 139 142 139 140 137 149 150 158 165 185 225 223 214 184 171 177 176 181
215 208 221 226 227 222 229 240 248 258 177 245 238 254 252 253 247 223 216 229 227 209 214 227 169 160 183 134 129 127 139 144 155 140 121 101 83 333 334 145 149 138 142 160
216 226 204 222 228 226 225 226 244 230 241 234 209 242 236 221 222 200 195 205 211 213 200 214 185 166 161 148 157 142 147 155 158 149 148 156 177 217 158 152 140 129 146 127
221 218 225 209 224 224 231 213 228 243 248 253 260 267 278 163 199 183 184 189 215 195 185 193 212 154 166 162 182 193 154 149 154 152 147 166 185 158 155 146 137 117 150 155
229 216 224 232 212 219 211 237 209 218 228 231 236 252 260 268 195 192 178 190 199 199 186 189 146 149 161 161 174 160 158 110 119 109 134 131 99 119 116 108 128 163 218 200
215 233 216 236 217 199 215 216 202 216 226 235 227 236 251 136 248 320 166 171 190 140 67 108 120 126 123 146 115 101 106 105 97 100 106 103 109 92 85 75 51 25 14 8
222 211 218 214 212 194 206 204 222 204 213 224 224 229 247 182 175 117 138 162 158 125 124 108 108 129 130 113 115 115 105 108 100 94 85 84 77 85 75 73 58 40 322 314
216 225 203 221 205 218 199 212 225 259 285 302 270 219 86 221 124 152 144 138 121 135 114 111 115 118 122 133 137 137 124 114 104 96 88 73 71 62 41 11 347 338 314 298
222 221 234 213 221 220 223 201 216 233 237 222 237 222 160 214 165 177 151 155 150 132 123 121 126 109 110 117 114 112 120 111 113 106 97 90 55 37 358 330 307 295 293 288
223 156 263 276 220 208 222 233 216 241 232 182 237 269 322 185 339 330 162 154 135 133 126 123 111 109 113 111 109 112 129 141 116 97 82 70 26 342 315 296 292 288 291 299
193 200 177 254 233 215 219 217 203 222 253 230 181 182 314 291 229 2 357 149 141 127 125 126 123 136 139 140 138 110 87 110 109 91 66 11 329 305 299 299 295 298 293 292
271 179 196 254 250 256 216 214 193 209 300 240 184 124 225 161 90 63 323 292 122 131 132 125 138 144 128 102 103 105 86 63 42 24 354 342 327 309 300 293 295 299 300 298
315 230 182 241 212 213 209 212 229 211 179 202 194 154 199 210 172 155 127 86 56 4 112 118 120 97 80 76 61 50 40 24 12 357 342 332 327 317 311 304 299 295 298 303
261 218 178 224 260 291 245 198 187 177 112 211 217 251 287 108 326 328 117 107 117 129 136 95 84 82 93 73 50 45 20 5 1 339 326 316 311 306 302 300 298 298 300 302
246 216 224 158 151 225 234 181 151 149 216 280 272 241 273 109 82 15 208 160 148 146 132 110 100 84 63 33 20 9 6 357 339 328 317 317 320 314 311 310 308 309 311 302
200 213 218 179 24 3 234 191 167 188 172 200 191 169 166 166 129 184 189 119 110 89 104 83 76 63 39 10 358 10 353 345 336 330 322 324 323 318 322 321 318 318 314 306
218 170 83 148 137 137 179 221 241 211 111 317 89 148 162 144 142 185 81 96 102 95 89 76 64 48 25 1 9 354 347 341 337 330 329 329 325 321 321 321 316 312 306 304
56 104 98 102 185 130 131 145 149 170 165 53 50 106 113 106 87 62 62 70 76 80 77 70 63 47 32 18 2 351 342 342 336 335 334 330 325 319 317 312 310 306 306 304
90 90 91 171 170 127 120 95 79 160 92 58 10 66 120 133 109 101 92 87 79 73 65 64 52 44 26 12 357 347 344 338 343 339 329 322 319 316 313 309 306 303 296 293
96 71 113 222 159 79 83 87 91 180 94 79 71 72 72 73 102 104 96 87 80 80 64 64 59 50 24 7 357 352 344 347 337 329 324 321 318 316 311 305 302 300 300 303
122 183 200 131 99 95 101 133 60 106 98 92 89 93 99 107 110 102 98 88 78 72 73 66 57 58 27 14 6 358 352 339 333 330 326 322 323 322 316 313 310 306 302 298
95 63 39 51 94 78 78 88 100 101 104 96 97 101 109 107 103 97 88 89 82 72 67 46 46 50 43 27 19 8 352 342 336 332 330 327 326 324 322 317 310 313 319 320
67 65 128 95 104 99 83 94 90 98 98 94 88 91 95 97 94 90 89 82 81 68 54 46 38 29 35 19 9 14 3 357 342 336 332 334 333 327 325 327 323 321 317 311
96 93 94 109 93 100 107 102 107 105 104 102 100 96 96 99 99 100 92 80 76 64 52 45 35 28 20 12 20 5 7 11 357 342 339 340 338 333 335 330 324 317 307 302
45 119 135 133 134 111 115 122 119 109 106 104 104 98 94 99 99 94 86 72 73 63 50 44 37 29 19 20 14 8 356 5 -0 360 345 342 338 339 340 336 330 328 327 331